Simultaneous Nadir Overpasses (SNOs) Predictions

Prediction of SNOs between METOP-A and TERRA Satellite Orbit:

Table of predicted SNOs for the next 14.0 days since TLE Epoch: 8/17/2019
Index Date (METOP-A) Time (METOP-A) Lat,Lon (METOP-A) SZA (METOP-A ) Date (TERRA) Time (TERRA) Lat,Lon (TERRA) SZA (TERRA ) Distance(km) Time Diff (sec)
1 08/19/2019 14:16:40 -81.45,-164.45 108.31 08/19/2019 14:17:53 -81.46,-164.27 108.25 2.93 73
2 08/19/2019 15:07:20 81.45, 3.18 71.74 08/19/2019 15:07:20 81.45, 3.15 71.74 0.54 0
3 08/19/2019 15:58:01 -81.45, 170.47 108.26 08/19/2019 15:56:47 -81.44, 170.64 108.28 2.93 74
4 08/22/2019 09:51:04 -81.45, -98.13 107.37 08/22/2019 09:52:07 -81.45, -98.06 107.34 1.34 63
5 08/22/2019 10:41:43 81.44, 69.86 72.72 08/22/2019 10:41:33 81.45, 69.73 72.70 2.32 10
6 08/25/2019 05:25:28 -81.45, -31.42 106.37 08/25/2019 05:26:21 -81.45, -31.49 106.35 1.19 53
7 08/25/2019 06:16:09 81.45, 135.73 73.63 08/25/2019 06:15:48 81.44, 135.89 73.63 2.80 21
8 08/28/2019 00:59:53 -81.45, 34.88 105.38 08/28/2019 01:00:35 -81.46, 35.05 105.34 2.93 42
9 08/28/2019 01:50:33 81.44,-157.60 74.66 08/28/2019 01:50:02 81.44,-157.60 74.64 0.22 31
10 08/30/2019 20:34:17 -81.45, 101.18 104.37 08/30/2019 20:34:49 -81.44, 101.16 104.37 0.87 32




NCC Satellite Simultaneous Nadir Overpasses (SNOs) Prediction Service
